Year,Month,Day,Hour,Minute,Value (Times are PST for temperature in C)
2010,03,24,00,00,4.60
2010,03,24,00,01,4.60
2010,03,24,00,02,4.60
2010,03,24,00,03,4.60
2010,03,24,00,04,4.60
2010,03,24,00,05,4.60
2010,03,24,00,06,4.60
2010,03,24,00,07,4.60
2010,03,24,00,08,4.60
2010,03,24,00,09,4.60
2010,03,24,00,10,4.60
2010,03,24,00,11,4.60
2010,03,24,00,12,4.60
2010,03,24,00,13,4.60
2010,03,24,00,14,4.60
2010,03,24,00,15,4.60
2010,03,24,00,16,4.60
2010,03,24,00,17,4.60
2010,03,24,00,18,4.60
2010,03,24,00,19,4.60
2010,03,24,00,20,4.60
2010,03,24,00,21,4.60
2010,03,24,00,22,4.60
2010,03,24,00,23,4.50
2010,03,24,00,24,4.50
2010,03,24,00,25,4.50
2010,03,24,00,26,4.50
2010,03,24,00,27,4.50
2010,03,24,00,28,4.50
2010,03,24,00,29,4.50
2010,03,24,00,30,4.50
2010,03,24,00,31,4.50
2010,03,24,00,32,4.50
2010,03,24,00,33,4.50
2010,03,24,00,34,4.50
2010,03,24,00,35,4.50
2010,03,24,00,36,4.50
2010,03,24,00,37,4.50
2010,03,24,00,38,4.50
2010,03,24,00,39,4.50
2010,03,24,00,40,4.50
2010,03,24,00,41,4.50
2010,03,24,00,42,4.50
2010,03,24,00,43,4.50
2010,03,24,00,44,4.40
2010,03,24,00,45,4.40
2010,03,24,00,46,4.40
2010,03,24,00,47,4.40
2010,03,24,00,48,4.40
2010,03,24,00,49,4.40
2010,03,24,00,50,4.40
2010,03,24,00,51,4.30
2010,03,24,00,52,4.30
2010,03,24,00,53,4.30
2010,03,24,00,54,4.30
2010,03,24,00,55,4.30
2010,03,24,00,56,4.30
2010,03,24,00,57,4.30
2010,03,24,00,58,4.20
2010,03,24,00,59,4.20
2010,03,24,01,00,4.20
2010,03,24,01,01,4.20
2010,03,24,01,02,4.20
2010,03,24,01,03,4.20
2010,03,24,01,04,4.20
2010,03,24,01,05,4.20
2010,03,24,01,06,4.20
2010,03,24,01,07,4.20
2010,03,24,01,08,4.20
2010,03,24,01,09,4.20
2010,03,24,01,10,4.20
2010,03,24,01,11,4.20
2010,03,24,01,12,4.20
2010,03,24,01,13,4.20
2010,03,24,01,14,4.20
2010,03,24,01,15,4.20
2010,03,24,01,16,4.20
2010,03,24,01,17,4.20
2010,03,24,01,18,4.20
2010,03,24,01,19,4.20
2010,03,24,01,20,4.20
2010,03,24,01,21,4.20
2010,03,24,01,22,4.30
2010,03,24,01,23,4.30
2010,03,24,01,24,4.30
2010,03,24,01,25,4.40
2010,03,24,01,26,4.40
2010,03,24,01,27,4.40
2010,03,24,01,28,4.40
2010,03,24,01,29,4.40
2010,03,24,01,30,4.40
2010,03,24,01,31,4.40
2010,03,24,01,32,4.40
2010,03,24,01,33,4.40
2010,03,24,01,34,4.40
2010,03,24,01,35,4.40
2010,03,24,01,36,4.40
2010,03,24,01,37,4.40
2010,03,24,01,38,4.40
2010,03,24,01,39,4.40
2010,03,24,01,40,4.40
2010,03,24,01,41,4.40
2010,03,24,01,42,4.40
2010,03,24,01,43,4.40
2010,03,24,01,44,4.40
2010,03,24,01,45,4.40
2010,03,24,01,46,4.40
2010,03,24,01,47,4.40
2010,03,24,01,48,4.40
2010,03,24,01,49,4.40
2010,03,24,01,50,4.40
2010,03,24,01,51,4.40
2010,03,24,01,52,4.40
2010,03,24,01,53,4.50
2010,03,24,01,54,4.50
2010,03,24,01,55,4.50
2010,03,24,01,56,4.50
2010,03,24,01,57,4.60
2010,03,24,01,58,4.60
2010,03,24,01,59,4.60
2010,03,24,02,00,4.60
2010,03,24,02,01,4.60
2010,03,24,02,02,4.60
2010,03,24,02,03,4.60
2010,03,24,02,04,4.60
2010,03,24,02,05,4.70
2010,03,24,02,06,4.70
2010,03,24,02,07,4.70
2010,03,24,02,08,4.70
2010,03,24,02,09,4.70
2010,03,24,02,10,4.70
2010,03,24,02,11,4.70
2010,03,24,02,12,4.80
2010,03,24,02,13,4.80
2010,03,24,02,14,4.80
2010,03,24,02,15,4.80
2010,03,24,02,16,4.80
2010,03,24,02,17,4.80
2010,03,24,02,18,4.90
2010,03,24,02,19,4.90
2010,03,24,02,20,4.90
2010,03,24,02,21,4.90
2010,03,24,02,22,4.90
2010,03,24,02,23,4.90
2010,03,24,02,24,5.00
2010,03,24,02,25,5.10
2010,03,24,02,26,5.10
2010,03,24,02,27,5.10
2010,03,24,02,28,5.10
2010,03,24,02,29,5.10
2010,03,24,02,30,5.10
2010,03,24,02,31,5.10
2010,03,24,02,32,5.10
2010,03,24,02,33,5.10
2010,03,24,02,34,5.10
2010,03,24,02,35,5.10
2010,03,24,02,36,5.10
2010,03,24,02,37,5.10
2010,03,24,02,38,5.10
2010,03,24,02,39,5.10
2010,03,24,02,40,5.20
2010,03,24,02,41,5.20
2010,03,24,02,42,5.30
2010,03,24,02,43,5.30
2010,03,24,02,44,5.30
2010,03,24,02,45,5.30
2010,03,24,02,46,5.40
2010,03,24,02,47,5.40
2010,03,24,02,48,5.40
2010,03,24,02,49,5.50
2010,03,24,02,50,5.60
2010,03,24,02,51,5.60
2010,03,24,02,52,5.60
2010,03,24,02,53,5.60
2010,03,24,02,54,5.60
2010,03,24,02,55,5.60
2010,03,24,02,56,5.60
2010,03,24,02,57,5.60
2010,03,24,02,58,5.60
2010,03,24,02,59,5.60
2010,03,24,03,00,5.60
2010,03,24,03,01,5.70
2010,03,24,03,02,5.70
2010,03,24,03,03,5.70
2010,03,24,03,04,5.70
2010,03,24,03,05,5.70
2010,03,24,03,06,5.60
2010,03,24,03,07,5.70
2010,03,24,03,08,5.70
2010,03,24,03,09,5.70
2010,03,24,03,10,5.70
2010,03,24,03,11,5.70
2010,03,24,03,12,5.70
2010,03,24,03,13,5.70
2010,03,24,03,14,5.70
2010,03,24,03,15,5.70
2010,03,24,03,16,5.70
2010,03,24,03,17,5.60
2010,03,24,03,18,5.60
2010,03,24,03,19,5.60
2010,03,24,03,20,5.60
2010,03,24,03,21,5.70
2010,03,24,03,22,5.70
2010,03,24,03,23,5.70
2010,03,24,03,24,5.70
2010,03,24,03,25,5.70
2010,03,24,03,26,5.70
2010,03,24,03,27,5.70
2010,03,24,03,28,5.80
2010,03,24,03,29,5.80
2010,03,24,03,30,5.80
2010,03,24,03,31,5.80
2010,03,24,03,32,5.90
2010,03,24,03,33,5.90
2010,03,24,03,34,5.90
2010,03,24,03,35,6.00
2010,03,24,03,36,6.00
2010,03,24,03,37,6.00
2010,03,24,03,38,6.00
2010,03,24,03,39,6.10
2010,03,24,03,40,6.10
2010,03,24,03,41,6.20
2010,03,24,03,42,6.20
2010,03,24,03,43,6.30
2010,03,24,03,44,6.30
2010,03,24,03,45,6.30
2010,03,24,03,46,6.30
2010,03,24,03,47,6.30
2010,03,24,03,48,6.30
2010,03,24,03,49,6.30
2010,03,24,03,50,6.30
2010,03,24,03,51,6.30
2010,03,24,03,52,6.30
2010,03,24,03,53,6.30
2010,03,24,03,54,6.20
2010,03,24,03,55,6.20
2010,03,24,03,56,6.20
2010,03,24,03,57,6.20
2010,03,24,03,58,6.20
2010,03,24,03,59,6.20
2010,03,24,04,00,6.20
2010,03,24,04,01,6.20
2010,03,24,04,02,6.20
2010,03,24,04,03,6.20
2010,03,24,04,04,6.20
2010,03,24,04,05,6.20
2010,03,24,04,06,6.30
2010,03,24,04,07,6.30
2010,03,24,04,08,6.30
2010,03,24,04,09,6.30
2010,03,24,04,10,6.30
2010,03,24,04,11,6.30
2010,03,24,04,12,6.30
2010,03,24,04,13,6.30
2010,03,24,04,14,6.40
2010,03,24,04,15,6.40
2010,03,24,04,16,6.40
2010,03,24,04,17,6.40
2010,03,24,04,18,6.40
2010,03,24,04,19,6.40
2010,03,24,04,20,6.40
2010,03,24,04,21,6.40
2010,03,24,04,22,6.40
2010,03,24,04,23,6.40
2010,03,24,04,24,6.40
2010,03,24,04,25,6.30
2010,03,24,04,26,6.30
2010,03,24,04,27,6.30
2010,03,24,04,28,6.30
2010,03,24,04,29,6.20
2010,03,24,04,30,6.20
2010,03,24,04,31,6.20
2010,03,24,04,32,6.20
2010,03,24,04,33,6.20
2010,03,24,04,34,6.20
2010,03,24,04,35,6.20
2010,03,24,04,36,6.20
2010,03,24,04,37,6.20
2010,03,24,04,38,6.20
2010,03,24,04,39,6.20
2010,03,24,04,40,6.20
2010,03,24,04,41,6.20
2010,03,24,04,42,6.20
2010,03,24,04,43,6.20
2010,03,24,04,44,6.20
2010,03,24,04,45,6.20
2010,03,24,04,46,6.20
2010,03,24,04,47,6.20
2010,03,24,04,48,6.30
2010,03,24,04,49,6.30
2010,03,24,04,50,6.30
2010,03,24,04,51,6.30
2010,03,24,04,52,6.40
2010,03,24,04,53,6.40
2010,03,24,04,54,6.40
2010,03,24,04,55,6.40
2010,03,24,04,56,6.40
2010,03,24,04,57,6.30
2010,03,24,04,58,6.30
2010,03,24,04,59,6.30
2010,03,24,05,00,6.30
2010,03,24,05,01,6.30
2010,03,24,05,02,6.30
2010,03,24,05,03,6.30
2010,03,24,05,04,6.30
2010,03,24,05,05,6.30
2010,03,24,05,06,6.30
2010,03,24,05,07,6.30
2010,03,24,05,08,6.30
2010,03,24,05,09,6.30
2010,03,24,05,10,6.30
2010,03,24,05,11,6.30
2010,03,24,05,12,6.30
2010,03,24,05,13,6.30
2010,03,24,05,14,6.20
2010,03,24,05,15,6.20
2010,03,24,05,16,6.20
2010,03,24,05,17,6.20
2010,03,24,05,18,6.20
2010,03,24,05,19,6.20
2010,03,24,05,20,6.20
2010,03,24,05,21,6.10
2010,03,24,05,22,6.10
2010,03,24,05,23,6.00
2010,03,24,05,24,6.00
2010,03,24,05,25,6.00
2010,03,24,05,26,6.00
2010,03,24,05,27,5.90
2010,03,24,05,28,5.90
2010,03,24,05,29,5.90
2010,03,24,05,30,5.90
2010,03,24,05,31,5.80
2010,03,24,05,32,5.80
2010,03,24,05,33,5.80
2010,03,24,05,34,5.80
2010,03,24,05,35,5.80
2010,03,24,05,36,5.80
2010,03,24,05,37,5.70
2010,03,24,05,38,5.70
2010,03,24,05,39,5.70
2010,03,24,05,40,5.80
2010,03,24,05,41,5.80
2010,03,24,05,42,5.80
2010,03,24,05,43,5.80
2010,03,24,05,44,5.80
2010,03,24,05,45,5.80
2010,03,24,05,46,5.90
2010,03,24,05,47,5.90
2010,03,24,05,48,5.90
2010,03,24,05,49,5.90
2010,03,24,05,50,5.90
2010,03,24,05,51,5.90
2010,03,24,05,52,5.90
2010,03,24,05,53,5.90
2010,03,24,05,54,5.90
2010,03,24,05,55,5.90
2010,03,24,05,56,5.90
2010,03,24,05,57,5.90
2010,03,24,05,58,5.90
2010,03,24,05,59,5.90
2010,03,24,06,00,5.90
2010,03,24,06,01,5.90
2010,03,24,06,02,5.90
2010,03,24,06,03,5.90
2010,03,24,06,04,5.90
2010,03,24,06,05,5.80
2010,03,24,06,06,5.80
2010,03,24,06,07,5.80
2010,03,24,06,08,5.80
2010,03,24,06,09,5.80
2010,03,24,06,10,5.80
2010,03,24,06,11,5.80
2010,03,24,06,12,5.80
2010,03,24,06,13,5.80
2010,03,24,06,14,5.80
2010,03,24,06,15,5.80
2010,03,24,06,16,5.80
2010,03,24,06,17,5.90
2010,03,24,06,18,5.90
2010,03,24,06,19,5.90
2010,03,24,06,20,5.90
2010,03,24,06,21,6.00
2010,03,24,06,22,6.00
2010,03,24,06,23,6.00
2010,03,24,06,24,6.00
2010,03,24,06,25,5.90
2010,03,24,06,26,5.90
2010,03,24,06,27,5.90
2010,03,24,06,28,5.90
2010,03,24,06,29,5.90
2010,03,24,06,30,5.90
2010,03,24,06,31,5.80
2010,03,24,06,32,5.80
2010,03,24,06,33,5.80
2010,03,24,06,34,5.80
2010,03,24,06,35,5.80
2010,03,24,06,36,5.80
2010,03,24,06,37,5.80
2010,03,24,06,38,5.80
2010,03,24,06,39,5.80
2010,03,24,06,40,5.80
2010,03,24,06,41,5.80
2010,03,24,06,42,5.80
2010,03,24,06,43,5.70
2010,03,24,06,44,5.70
2010,03,24,06,45,5.70
2010,03,24,06,46,5.70
2010,03,24,06,47,5.70
2010,03,24,06,48,5.70
2010,03,24,06,49,5.70
2010,03,24,06,50,5.70
2010,03,24,06,51,5.70
2010,03,24,06,52,5.60
2010,03,24,06,53,5.60
2010,03,24,06,54,5.60
2010,03,24,06,55,5.60
2010,03,24,06,56,5.50
2010,03,24,06,57,5.50
2010,03,24,06,58,5.50
2010,03,24,06,59,5.50
2010,03,24,07,00,5.40
2010,03,24,07,01,5.40
2010,03,24,07,02,5.40
2010,03,24,07,03,5.40
2010,03,24,07,04,5.40
2010,03,24,07,05,5.30
2010,03,24,07,06,5.30
2010,03,24,07,07,5.30
2010,03,24,07,08,5.30
2010,03,24,07,09,5.30
2010,03,24,07,10,5.30
2010,03,24,07,11,5.30
2010,03,24,07,12,5.30
2010,03,24,07,13,5.30
2010,03,24,07,14,5.30
2010,03,24,07,15,5.30
2010,03,24,07,16,5.30
2010,03,24,07,17,5.20
2010,03,24,07,18,5.20
2010,03,24,07,19,5.20
2010,03,24,07,20,5.20
2010,03,24,07,21,5.20
2010,03,24,07,22,5.20
2010,03,24,07,23,5.20
2010,03,24,07,24,5.20
2010,03,24,07,25,5.20
2010,03,24,07,26,5.20
2010,03,24,07,27,5.20
2010,03,24,07,28,5.20
2010,03,24,07,29,5.30
2010,03,24,07,30,5.30
2010,03,24,07,31,5.30
2010,03,24,07,32,5.30
2010,03,24,07,33,5.30
2010,03,24,07,34,5.30
2010,03,24,07,35,5.40
2010,03,24,07,36,5.40
2010,03,24,07,37,5.40
2010,03,24,07,38,5.50
2010,03,24,07,39,5.50
2010,03,24,07,40,5.60
2010,03,24,07,41,5.60
2010,03,24,07,42,5.60
2010,03,24,07,43,5.60
2010,03,24,07,44,5.50
2010,03,24,07,45,5.60
2010,03,24,07,46,5.60
2010,03,24,07,47,5.60
2010,03,24,07,48,5.60
2010,03,24,07,49,5.60
2010,03,24,07,50,5.60
2010,03,24,07,51,5.60
2010,03,24,07,52,5.60
2010,03,24,07,53,5.60
2010,03,24,07,54,5.70
2010,03,24,07,55,5.70
2010,03,24,07,56,5.70
2010,03,24,07,57,5.70
2010,03,24,07,58,5.70
2010,03,24,07,59,5.70
2010,03,24,08,00,5.70
2010,03,24,08,01,5.80
2010,03,24,08,02,5.80
2010,03,24,08,03,5.90
2010,03,24,08,04,5.90
2010,03,24,08,05,6.00
2010,03,24,08,06,6.00
2010,03,24,08,07,6.00
2010,03,24,08,08,6.00
2010,03,24,08,09,6.00
2010,03,24,08,10,6.10
2010,03,24,08,11,6.10
2010,03,24,08,12,6.20
2010,03,24,08,13,6.20
2010,03,24,08,14,6.30
2010,03,24,08,15,6.40
2010,03,24,08,16,6.40
2010,03,24,08,17,6.50
2010,03,24,08,18,6.60
2010,03,24,08,19,6.70
2010,03,24,08,20,6.80
2010,03,24,08,21,6.80
2010,03,24,08,22,6.80
2010,03,24,08,23,6.90
2010,03,24,08,24,7.00
2010,03,24,08,25,7.00
2010,03,24,08,26,7.10
2010,03,24,08,27,7.10
2010,03,24,08,28,7.20
2010,03,24,08,29,7.20
2010,03,24,08,30,7.30
2010,03,24,08,31,7.30
2010,03,24,08,32,7.30
2010,03,24,08,33,7.30
2010,03,24,08,34,7.30
2010,03,24,08,35,7.40
2010,03,24,08,36,7.40
2010,03,24,08,37,7.50
2010,03,24,08,38,7.50
2010,03,24,08,39,7.50
2010,03,24,08,40,7.60
2010,03,24,08,41,7.60
2010,03,24,08,42,7.60
2010,03,24,08,43,7.60
2010,03,24,08,44,7.60
2010,03,24,08,45,7.60
2010,03,24,08,46,7.70
2010,03,24,08,47,7.70
2010,03,24,08,48,7.70
2010,03,24,08,49,7.80
2010,03,24,08,50,7.80
2010,03,24,08,51,7.80
2010,03,24,08,52,7.80
2010,03,24,08,53,7.80
2010,03,24,08,54,7.80
2010,03,24,08,55,7.80
2010,03,24,08,56,7.90
2010,03,24,08,57,7.90
2010,03,24,08,58,7.90
2010,03,24,08,59,7.90
2010,03,24,09,00,8.00
2010,03,24,09,01,8.00
2010,03,24,09,02,8.00
2010,03,24,09,03,8.00
2010,03,24,09,04,8.10
2010,03,24,09,05,8.10
2010,03,24,09,06,8.10
2010,03,24,09,07,8.10
2010,03,24,09,08,8.10
2010,03,24,09,09,8.10
2010,03,24,09,10,8.10
2010,03,24,09,11,8.10
2010,03,24,09,12,8.10
2010,03,24,09,13,8.10
2010,03,24,09,14,8.10
2010,03,24,09,15,8.10
2010,03,24,09,16,8.10
2010,03,24,09,17,8.10
2010,03,24,09,18,8.10
2010,03,24,09,19,8.10
2010,03,24,09,20,8.10
2010,03,24,09,21,8.10
2010,03,24,09,22,8.20
2010,03,24,09,23,8.20
2010,03,24,09,24,8.20
2010,03,24,09,25,8.20
2010,03,24,09,26,8.20
2010,03,24,09,27,8.30
2010,03,24,09,28,8.30
2010,03,24,09,29,8.40
2010,03,24,09,30,8.40
2010,03,24,09,31,8.50
2010,03,24,09,32,8.50
2010,03,24,09,33,8.50
2010,03,24,09,34,8.60
2010,03,24,09,35,8.70
2010,03,24,09,36,8.70
2010,03,24,09,37,8.70
2010,03,24,09,38,8.80
2010,03,24,09,39,8.90
2010,03,24,09,40,8.90
2010,03,24,09,41,8.90
2010,03,24,09,42,9.00
2010,03,24,09,43,9.00
2010,03,24,09,44,9.10
2010,03,24,09,45,9.10
2010,03,24,09,46,9.20
2010,03,24,09,47,9.20
2010,03,24,09,48,9.20
2010,03,24,09,49,9.20
2010,03,24,09,50,9.20
2010,03,24,09,51,9.20
2010,03,24,09,52,9.20
2010,03,24,09,53,9.20
2010,03,24,09,54,9.30
2010,03,24,09,55,9.30
2010,03,24,09,56,9.30
2010,03,24,09,57,9.40
2010,03,24,09,58,9.50
2010,03,24,09,59,9.60
2010,03,24,10,00,9.60
2010,03,24,10,01,9.60
2010,03,24,10,02,9.60
2010,03,24,10,03,9.70
2010,03,24,10,04,9.70
2010,03,24,10,05,9.70
2010,03,24,10,06,9.70
2010,03,24,10,07,9.70
2010,03,24,10,08,9.70
2010,03,24,10,09,9.70
2010,03,24,10,10,9.70
2010,03,24,10,11,9.70
2010,03,24,10,12,9.70
2010,03,24,10,13,9.70
2010,03,24,10,14,9.70
2010,03,24,10,15,9.70
2010,03,24,10,16,9.70
2010,03,24,10,17,9.80
2010,03,24,10,18,9.80
2010,03,24,10,19,9.90
2010,03,24,10,20,9.90
2010,03,24,10,21,9.90
2010,03,24,10,22,9.90
2010,03,24,10,23,9.90
2010,03,24,10,24,9.90
2010,03,24,10,25,9.90
2010,03,24,10,26,9.90
2010,03,24,10,27,9.90
2010,03,24,10,28,9.90
2010,03,24,10,29,9.90
2010,03,24,10,30,9.90
2010,03,24,10,31,10.00
2010,03,24,10,32,10.10
2010,03,24,10,33,10.10
2010,03,24,10,34,10.20
2010,03,24,10,35,10.20
2010,03,24,10,36,10.40
2010,03,24,10,37,10.40
2010,03,24,10,38,10.50
2010,03,24,10,39,10.60
2010,03,24,10,40,10.60
2010,03,24,10,41,10.70
2010,03,24,10,42,10.70
2010,03,24,10,43,10.70
2010,03,24,10,44,10.70
2010,03,24,10,45,10.70
2010,03,24,10,46,10.70
2010,03,24,10,47,10.70
2010,03,24,10,48,10.80
2010,03,24,10,49,10.80
2010,03,24,10,50,10.80
2010,03,24,10,51,10.80
2010,03,24,10,52,10.90
2010,03,24,10,53,10.80
2010,03,24,10,54,10.80
2010,03,24,10,55,10.80
2010,03,24,10,56,10.80
2010,03,24,10,57,10.80
2010,03,24,10,58,10.80
2010,03,24,10,59,10.80
2010,03,24,11,00,10.80
2010,03,24,11,01,10.80
2010,03,24,11,02,10.80
2010,03,24,11,03,10.90
2010,03,24,11,04,10.90
2010,03,24,11,05,10.90
2010,03,24,11,06,10.90
2010,03,24,11,07,11.00
2010,03,24,11,08,11.10
2010,03,24,11,09,11.10
2010,03,24,11,10,11.10
2010,03,24,11,11,11.10
2010,03,24,11,12,10.90
2010,03,24,11,13,10.90
2010,03,24,11,14,10.80
2010,03,24,11,15,10.70
2010,03,24,11,16,10.70
2010,03,24,11,17,10.60
2010,03,24,11,18,10.60
2010,03,24,11,19,10.70
2010,03,24,11,20,10.70
2010,03,24,11,21,10.80
2010,03,24,11,22,10.80
2010,03,24,11,24,10.90
2010,03,24,11,25,10.90
2010,03,24,11,26,10.90
2010,03,24,11,27,10.90
2010,03,24,11,28,10.90
2010,03,24,11,29,10.90
2010,03,24,11,30,10.90
2010,03,24,11,31,10.90
2010,03,24,11,32,10.90
2010,03,24,11,33,10.90
2010,03,24,11,34,10.90
2010,03,24,11,35,10.80
2010,03,24,11,36,10.80
2010,03,24,11,37,10.80
2010,03,24,11,38,10.80
2010,03,24,11,39,10.90
2010,03,24,11,40,10.90
2010,03,24,11,41,10.90
2010,03,24,11,42,11.10
2010,03,24,11,43,11.10
2010,03,24,11,44,11.10
2010,03,24,11,45,11.10
2010,03,24,11,46,11.10
2010,03,24,11,47,11.10
2010,03,24,11,48,11.10
2010,03,24,11,49,11.10
2010,03,24,11,50,11.10
2010,03,24,11,51,11.10
2010,03,24,11,52,11.10
2010,03,24,11,53,11.10
2010,03,24,11,54,11.10
2010,03,24,11,55,11.20
2010,03,24,11,56,11.20
2010,03,24,11,57,11.20
2010,03,24,11,58,11.30
2010,03,24,11,59,11.30
2010,03,24,12,00,11.40
2010,03,24,12,01,11.40
2010,03,24,12,02,11.40
2010,03,24,12,03,11.50
2010,03,24,12,04,11.60
2010,03,24,12,05,11.60
2010,03,24,12,06,11.60
2010,03,24,12,07,11.70
2010,03,24,12,08,11.70
2010,03,24,12,09,11.70
2010,03,24,12,10,11.80
2010,03,24,12,11,11.80
2010,03,24,12,12,11.80
2010,03,24,12,13,11.80
2010,03,24,12,14,11.80
2010,03,24,12,15,11.90
2010,03,24,12,16,12.00
2010,03,24,12,17,12.10
2010,03,24,12,18,12.10
2010,03,24,12,19,12.10
2010,03,24,12,20,12.00
2010,03,24,12,21,12.00
2010,03,24,12,22,12.00
2010,03,24,12,23,12.00
2010,03,24,12,24,11.90
2010,03,24,12,25,11.90
2010,03,24,12,26,12.00
2010,03,24,12,27,12.00
2010,03,24,12,28,12.00
2010,03,24,12,29,12.10
2010,03,24,12,30,12.20
2010,03,24,12,31,12.30
2010,03,24,12,32,12.30
2010,03,24,12,33,12.30
2010,03,24,12,34,12.30
2010,03,24,12,35,12.30
2010,03,24,12,36,12.30
2010,03,24,12,37,12.30
2010,03,24,12,38,12.30
2010,03,24,12,39,12.30
2010,03,24,12,40,12.30
2010,03,24,12,41,12.40
2010,03,24,12,42,12.40
2010,03,24,12,43,12.40
2010,03,24,12,44,12.50
2010,03,24,12,45,12.50
2010,03,24,12,46,12.60
2010,03,24,12,47,12.70
2010,03,24,12,48,12.70
2010,03,24,12,49,12.70
2010,03,24,12,50,12.70
2010,03,24,12,51,12.80
2010,03,24,12,52,12.70
2010,03,24,12,53,12.80
2010,03,24,12,54,12.80
2010,03,24,12,55,13.00
2010,03,24,12,56,13.00
2010,03,24,12,57,13.10
2010,03,24,12,58,13.10
2010,03,24,12,59,13.10
2010,03,24,13,00,13.10
2010,03,24,13,01,13.10
2010,03,24,13,02,13.20
2010,03,24,13,03,13.30
2010,03,24,13,04,13.30
2010,03,24,13,05,13.30
2010,03,24,13,06,13.30
2010,03,24,13,07,13.30
2010,03,24,13,08,13.30
2010,03,24,13,09,13.30
2010,03,24,13,10,13.30
2010,03,24,13,11,13.40
2010,03,24,13,12,13.50
2010,03,24,13,13,13.60
2010,03,24,13,14,13.70
2010,03,24,13,15,13.70
2010,03,24,13,16,13.70
2010,03,24,13,17,13.70
2010,03,24,13,18,13.80
2010,03,24,13,19,13.70
2010,03,24,13,20,13.70
2010,03,24,13,21,13.70
2010,03,24,13,22,13.70
2010,03,24,13,23,13.70
2010,03,24,13,24,13.60
2010,03,24,13,25,13.60
2010,03,24,13,26,13.50
2010,03,24,13,27,13.40
2010,03,24,13,28,13.50
2010,03,24,13,29,13.50
2010,03,24,13,30,13.60
2010,03,24,13,31,13.60
2010,03,24,13,32,13.70
2010,03,24,13,33,13.70
2010,03,24,13,34,13.80
2010,03,24,13,35,13.90
2010,03,24,13,36,14.00
2010,03,24,13,37,14.00
2010,03,24,13,38,14.00
2010,03,24,13,39,14.00
2010,03,24,13,40,14.00
2010,03,24,13,41,14.00
2010,03,24,13,42,14.00
2010,03,24,13,43,14.00
2010,03,24,13,44,13.90
2010,03,24,13,45,13.90
2010,03,24,13,46,13.90
2010,03,24,13,47,13.90
2010,03,24,13,48,13.90
2010,03,24,13,49,14.00
2010,03,24,13,50,14.10
2010,03,24,13,51,14.20
2010,03,24,13,52,14.20
2010,03,24,13,53,14.20
2010,03,24,13,54,14.30
2010,03,24,13,55,14.30
2010,03,24,13,56,14.30
2010,03,24,13,57,14.30
2010,03,24,13,58,14.30
2010,03,24,13,59,14.40
2010,03,24,14,00,14.40
2010,03,24,14,01,14.50
2010,03,24,14,02,14.50
2010,03,24,14,03,14.60
2010,03,24,14,04,14.60
2010,03,24,14,05,14.70
2010,03,24,14,06,14.60
2010,03,24,14,07,14.50
2010,03,24,14,08,14.30
2010,03,24,14,09,14.20
2010,03,24,14,10,14.10
2010,03,24,14,11,14.10
2010,03,24,14,12,14.10
2010,03,24,14,13,14.10
2010,03,24,14,14,14.10
2010,03,24,14,15,14.10
2010,03,24,14,16,14.10
2010,03,24,14,17,14.20
2010,03,24,14,18,14.10
2010,03,24,14,19,14.10
2010,03,24,14,20,14.00
2010,03,24,14,21,14.00
2010,03,24,14,22,14.00
2010,03,24,14,23,14.00
2010,03,24,14,24,14.10
2010,03,24,14,25,14.20
2010,03,24,14,26,14.20
2010,03,24,14,27,14.30
2010,03,24,14,28,14.40
2010,03,24,14,29,14.40
2010,03,24,14,30,14.40
2010,03,24,14,31,14.30
2010,03,24,14,32,14.30
2010,03,24,14,33,14.40
2010,03,24,14,34,14.40
2010,03,24,14,35,14.40
2010,03,24,14,36,14.50
2010,03,24,14,37,14.50
2010,03,24,14,38,14.50
2010,03,24,14,39,14.40
2010,03,24,14,40,14.40
2010,03,24,14,41,14.30
2010,03,24,14,42,14.40
2010,03,24,14,43,14.40
2010,03,24,14,44,14.50
2010,03,24,14,45,14.50
2010,03,24,14,46,14.60
2010,03,24,14,47,14.60
2010,03,24,14,48,14.70
2010,03,24,14,49,14.80
2010,03,24,14,50,14.80
2010,03,24,14,51,14.80
2010,03,24,14,52,14.70
2010,03,24,14,53,14.70
2010,03,24,14,54,14.60
2010,03,24,14,55,14.60
2010,03,24,14,56,14.60
2010,03,24,14,57,14.60
2010,03,24,14,58,14.50
2010,03,24,14,59,14.40
2010,03,24,15,00,14.40
2010,03,24,15,01,14.40
2010,03,24,15,02,14.40
2010,03,24,15,03,14.50
2010,03,24,15,04,14.50
2010,03,24,15,05,14.50
2010,03,24,15,06,14.50
2010,03,24,15,07,14.50
2010,03,24,15,08,14.50
2010,03,24,15,09,14.50
2010,03,24,15,10,14.50
2010,03,24,15,11,14.60
2010,03,24,15,12,14.60
2010,03,24,15,13,14.60
2010,03,24,15,14,14.60
2010,03,24,15,15,14.70
2010,03,24,15,16,14.70
2010,03,24,15,17,14.80
2010,03,24,15,18,14.70
2010,03,24,15,19,14.80
2010,03,24,15,20,14.80
2010,03,24,15,21,14.80
2010,03,24,15,22,14.80
2010,03,24,15,23,14.80
2010,03,24,15,24,14.80
2010,03,24,15,25,14.80
2010,03,24,15,26,14.90
2010,03,24,15,27,14.90
2010,03,24,15,28,15.00
2010,03,24,15,29,15.00
2010,03,24,15,30,15.10
2010,03,24,15,31,15.20
2010,03,24,15,32,15.30
2010,03,24,15,33,15.40
2010,03,24,15,34,15.50
2010,03,24,15,35,15.60
2010,03,24,15,36,15.60
2010,03,24,15,37,15.60
2010,03,24,15,38,15.60
2010,03,24,15,39,15.60
2010,03,24,15,40,15.70
2010,03,24,15,41,15.60
2010,03,24,15,42,15.50
2010,03,24,15,43,15.40
2010,03,24,15,44,15.30
2010,03,24,15,45,15.30
2010,03,24,15,46,15.30
2010,03,24,15,47,15.30
2010,03,24,15,48,15.30
2010,03,24,15,49,15.30
2010,03,24,15,50,15.30
2010,03,24,15,51,15.30
2010,03,24,15,52,15.30
2010,03,24,15,53,15.30
2010,03,24,15,54,15.30
2010,03,24,15,55,15.30
2010,03,24,15,56,15.30
2010,03,24,15,57,15.30
2010,03,24,15,58,15.30
2010,03,24,15,59,15.20
2010,03,24,16,00,15.10
2010,03,24,16,01,15.00
2010,03,24,16,02,15.00
2010,03,24,16,03,14.90
2010,03,24,16,04,14.90
2010,03,24,16,05,14.90
2010,03,24,16,06,14.90
2010,03,24,16,07,14.90
2010,03,24,16,08,14.90
2010,03,24,16,09,14.90
2010,03,24,16,10,14.90
2010,03,24,16,11,14.90
2010,03,24,16,12,14.90
2010,03,24,16,13,14.90
2010,03,24,16,14,14.90
2010,03,24,16,15,14.90
2010,03,24,16,16,14.90
2010,03,24,16,17,15.00
2010,03,24,16,18,15.00
2010,03,24,16,19,15.10
2010,03,24,16,20,15.10
2010,03,24,16,21,15.10
2010,03,24,16,22,15.10
2010,03,24,16,23,15.10
2010,03,24,16,24,15.10
2010,03,24,16,25,15.20
2010,03,24,16,26,15.20
2010,03,24,16,27,15.20
2010,03,24,16,28,15.10
2010,03,24,16,29,15.10
2010,03,24,16,30,15.10
2010,03,24,16,31,15.00
2010,03,24,16,32,15.00
2010,03,24,16,33,14.90
2010,03,24,16,34,14.90
2010,03,24,16,35,14.90
2010,03,24,16,36,14.80
2010,03,24,16,37,14.80
2010,03,24,16,38,14.80
2010,03,24,16,39,14.80
2010,03,24,16,40,14.80
2010,03,24,16,41,14.80
2010,03,24,16,42,14.80
2010,03,24,16,43,14.80
2010,03,24,16,44,14.80
2010,03,24,16,45,14.80
2010,03,24,16,46,14.80
2010,03,24,16,47,14.80
2010,03,24,16,48,14.80
2010,03,24,16,49,14.80
2010,03,24,16,50,14.80
2010,03,24,16,51,14.80
2010,03,24,16,52,14.80
2010,03,24,16,53,14.80
2010,03,24,16,54,14.80
2010,03,24,16,55,14.80
2010,03,24,16,56,14.70
2010,03,24,16,57,14.70
2010,03,24,16,58,14.70
2010,03,24,16,59,14.70
2010,03,24,17,00,14.60
2010,03,24,17,01,14.60
2010,03,24,17,02,14.60
2010,03,24,17,03,14.60
2010,03,24,17,04,14.60
2010,03,24,17,05,14.60
2010,03,24,17,06,14.60
2010,03,24,17,07,14.60
2010,03,24,17,08,14.60
2010,03,24,17,09,14.60
2010,03,24,17,10,14.60
2010,03,24,17,11,14.60
2010,03,24,17,12,14.60
2010,03,24,17,13,14.50
2010,03,24,17,14,14.40
2010,03,24,17,15,14.40
2010,03,24,17,16,14.40
2010,03,24,17,17,14.40
2010,03,24,17,18,14.40
2010,03,24,17,19,14.40
2010,03,24,17,20,14.30
2010,03,24,17,21,14.30
2010,03,24,17,22,14.30
2010,03,24,17,23,14.20
2010,03,24,17,24,14.20
2010,03,24,17,25,14.20
2010,03,24,17,26,14.20
2010,03,24,17,27,14.20
2010,03,24,17,28,14.20
2010,03,24,17,29,14.30
2010,03,24,17,30,14.30
2010,03,24,17,31,14.30
2010,03,24,17,32,14.30
2010,03,24,17,33,14.20
2010,03,24,17,34,14.20
2010,03,24,17,35,14.20
2010,03,24,17,36,14.20
2010,03,24,17,37,14.10
2010,03,24,17,38,14.10
2010,03,24,17,39,14.00
2010,03,24,17,40,14.00
2010,03,24,17,41,13.90
2010,03,24,17,42,13.90
2010,03,24,17,43,13.90
2010,03,24,17,44,13.90
2010,03,24,17,45,13.80
2010,03,24,17,46,13.80
2010,03,24,17,47,13.80